Starlink 5931

operational
NORAD ID: 56785 Int'l Des: 2023-078 Owner: SPXS Country: US Constellation: starlink
LEOCIRCULAR

Über Starlink 5931

Beschreibung wird geladen...

Live-Position

3D-Globus wird geladen...

Nächste Überflüge

Höhenverlauf

Altitude vs Time

uPlot chart will show altitude changes over time

Zweizeiliger Elementsatz

1 56785U 23078U 26034.55221615 .00000496 00000-0 49366-4 0 9994
2 56785 69.9997 70.6570 0003177 269.1991 90.8804 14.98344378148252
Epoch: 3. Feb. 2026 • Age: 16 hours

Aktueller Status

Höhe 591.0 km
Geschwindigkeit 7.56 km/s
Subsatellitenpunkt -55.50°S, 172.21°W
Startdatum 31. Mai 2023
Alter 2.6 years
Typ internet

Technische Details

Klassifizierung Payload
Masse 305.00 kg
Trockenmasse 290.00 kg
Gesamtmasse 305.00 kg
Länge 0.20 m
Durchmesser 2.80 m
Spannweite 9.00 m
Form Box + pan
Hersteller SPXS
Bus-Typ Starlink
Phasenstatus In Orbit
Besitzer/Staat SPXS/US

Große Konstellationen

Loading constellations...